[[{"header":{"parameterUnit":"m.s-1","parameterCategory":1,"la1":30.2991,"la2":30.254,"lo1":-89.0895,"lo2":-89.0444,"dy":0.0017,"dx":0.0017,"nx":28,"ny":28,"refTime":"2024-06-21T09:00:00:Z","depth":0,"parameterNumber":2,"parameterNumberName":"U-component_of_WINDS"},"data":[0,0,0,0,0,0,0,0,0,0,0,0,0,0,0,0,0,0,0,0,0,0,0,0,0,0,0,0,0,0,0,0,0,0,0,0,0,0,0,0,0,0,0,0,0,0,0,0,0,0,0,0,0,0,0,0,0,0,-2.5854,-2.5854,0,-2.5834,-2.5834,-2.5834,-2.5826,-2.5826,-2.5827,-2.5827,-2.5804,-2.5803,-2.5803,0,0,0,0,0,0,0,0,0,0,0,0,0,-2.5886,-2.5885,-2.5854,-2.5854,-2.5854,-2.5834,-2.5834,-2.5834,-2.5826,-2.5826,-2.5827,-2.5827,-2.5804,-2.5803,-2.5802,0,0,0,0,0,0,0,0,0,0,0,0,0,-2.5869,-2.5885,-2.5854,-2.5848,-2.5847,-2.5834,-2.5834,-2.5833,-2.5826,-2.5826,-2.5827,-2.5827,-2.5804,-2.5803,-2.5802,-2.5794,0,0,-2.5799,-2.5799,0,0,0,0,0,0,0,0,-2.587,-2.5868,-2.5849,-2.5848,-2.5847,-2.5833,-2.5837,-2.582,-2.5826,-2.5834,-2.5827,-2.5827,-2.5813,-2.5812,-2.5807,-2.5793,-2.5792,-2.5799,-2.5799,-2.5798,-2.5798,0,0,0,0,0,0,0,-2.5872,-2.5869,-2.5846,-2.5849,-2.5848,-2.5846,-2.5844,-2.5833,-2.5823,-2.5834,-2.5833,-2.5831,-2.5813,-2.5808,-2.5807,-2.5791,-2.5799,-2.5798,-2.5798,-2.5797,-2.577,-2.5769,0,0,0,0,0,0,-2.5874,-2.587,-2.5847,-2.5846,-2.586,-2.5845,-2.5843,-2.5837,-2.5823,-2.5821,-2.5831,-2.5831,-2.581,-2.5808,-2.5806,-2.5796,-2.5798,-2.5797,-2.5797,-2.577,-2.577,-2.5769,0,0,0,0,0,0,-2.5875,-2.5872,-2.5848,-2.5858,-2.5855,-2.5844,-2.5839,-2.5837,-2.5833,-2.5821,-2.5819,-2.5828,-2.581,-2.5807,-2.5797,-2.5795,-2.5797,-2.5796,-2.577,-2.577,-2.5769,-2.5774,0,0,0,0,0,0,-2.5876,-2.5872,-2.5869,-2.5858,-2.5854,-2.5839,-2.5838,-2.5836,-2.5831,-2.5831,-2.5818,-2.5816,-2.581,-2.5799,-2.5796,-2.5793,-2.5795,-2.577,-2.577,-2.577,-2.5774,-2.5774,-2.5774,0,0,0,0,0,-2.5877,-2.587,-2.5869,-2.5866,-2.585,-2.5839,-2.5837,-2.5831,-2.5831,-2.5827,-2.582,-2.5817,-2.5796,-2.5798,-2.5795,-2.5792,-2.577,-2.577,-2.577,-2.5774,-2.5774,-2.5774,0,0,0,0,0,0,-2.588,-2.5869,-2.5867,-2.5857,-2.5849,-2.5838,-2.5833,-2.5831,-2.5822,-2.5822,-2.5814,-2.5811,-2.5802,-2.5796,-2.5798,-2.5783,-2.5783,-2.5782,-2.5787,-2.5787,-2.5787,-2.5789,-2.5794,0,0,0,0,0,-2.588,-2.5873,-2.5863,-2.5855,-2.5852,-2.5843,-2.5838,-2.5834,-2.5826,-2.5822,-2.5815,-2.5806,-2.5798,-2.5792,-2.5784,-2.5774,-2.5771,-2.577,-2.577,-2.577,-2.5769,-2.5765,-2.5764,-2.5768,-2.5768,-2.5769,0,0,-2.5879,-2.5872,-2.5868,-2.5856,-2.5849,-2.5842,-2.5841,-2.5833,-2.5827,-2.5821,-2.5811,-2.5805,-2.5795,-2.5786,-2.5781,-2.578,-2.5768,-2.577,-2.577,-2.5769,-2.5764,-2.5764,-2.5764,-2.5768,-2.5768,-2.5768,0,0,-2.5874,-2.5868,-2.5861,-2.5855,-2.5846,-2.5841,-2.5839,-2.5829,-2.5825,-2.5816,-2.5811,-2.5804,-2.579,-2.5783,-2.5778,-2.5772,-2.5769,-2.577,-2.5769,-2.5765,-2.5765,-2.5764,-2.5763,-2.5762,-2.5769,-2.5769,-2.5769,0,-2.5874,-2.5863,-2.5857,-2.585,-2.5845,-2.5841,-2.5834,-2.5828,-2.5817,-2.5813,-2.5813,-2.5796,-2.5789,-2.5778,-2.5777,-2.5772,-2.577,-2.5771,-2.5765,-2.5765,-2.5765,-2.5763,-2.5762,-2.5769,-2.5769,-2.5769,-2.5769,0,-2.5863,-2.5856,-2.5852,-2.5842,-2.5837,-2.583,-2.5823,-2.5818,-2.5815,-2.581,-2.5801,-2.5792,-2.5783,-2.578,-2.5776,-2.5769,-2.5769,-2.5767,-2.5766,-2.5764,-2.5763,-2.5762,-2.577,-2.5769,-2.5769,-2.5769,0,0,-2.5858,-2.5847,-2.5846,-2.5842,-2.5832,-2.5826,-2.582,-2.5811,-2.5807,-2.58,-2.5794,-2.5783,-2.5782,-2.5776,-2.5771,-2.5767,-2.5764,-2.5766,-2.5766,-2.5767,-2.5757,-2.5758,-2.5758,-2.5762,-2.5762,-2.5762,-2.5758,0,-2.5852,-2.584,-2.5836,-2.5826,-2.582,-2.5816,-2.581,-2.5804,-2.5799,-2.5793,-2.5788,-2.578,-2.5779,-2.5776,-2.5772,-2.5766,-2.5762,-2.5766,-2.5757,-2.5757,-2.5759,-2.5757,-2.5758,-2.5754,-2.5757,-2.5757,-2.5757,0,-2.5843,-2.5837,-2.5827,-2.5819,-2.5816,-2.5811,-2.5804,-2.5798,-2.5791,-2.5788,-2.5782,-2.5779,-2.5772,-2.5772,-2.5762,-2.5765,-2.5761,-2.5758,-2.5757,-2.5756,-2.5756,-2.5755,-2.5752,-2.5752,-2.5756,-2.5756,-2.5756,0,-2.5841,-2.583,-2.5823,-2.5819,-2.5811,-2.5807,-2.5803,-2.5796,-2.5792,-2.5785,-2.5783,-2.5775,-2.5771,-2.5765,-2.576,-2.576,-2.5751,-2.575,-2.5748,-2.5748,-2.5746,-2.5746,-2.5742,-2.5743,-2.5743,-2.5743,-2.5743,0,-2.5834,-2.5828,-2.5822,-2.5817,-2.5811,-2.5806,-2.58,-2.5796,-2.579,-2.5785,-2.5781,-2.5776,-2.5769,-2.5763,-2.5759,-2.5752,-2.575,-2.5747,-2.5746,-2.5748,-2.5748,-2.5745,-2.5745,-2.5743,-2.5743,-2.5743,-2.5743,0,-2.583,-2.5826,-2.5818,-2.5811,-2.5809,-2.5805,-2.5799,-2.5794,-2.579,-2.5784,-2.5782,-2.5775,-2.5768,-2.5763,-2.5753,-2.5751,-2.5744,-2.5742,-2.5746,-2.5746,-2.5744,-2.5744,-2.5738,-2.5737,-2.5739,-2.5739,-2.5739,0,-2.5826,-2.5822,-2.5815,-2.5812,-2.5808,-2.5802,-2.5799,-2.5794,-2.579,-2.5783,-2.5779,-2.5773,-2.5767,-2.5756,-2.5751,-2.5744,-2.5742,-2.5741,-2.5741,-2.5743,-2.5743,-2.5743,-2.5743,-2.574,-2.574,-2.574,-2.574,0,-2.5819,-2.5818,-2.5813,-2.5807,-2.5803,-2.5798,-2.5793,-2.5791,-2.5785,-2.5781,-2.5775,-2.5771,-2.5762,-2.5755,-2.5748,-2.5744,-2.5742,-2.5741,-2.574,-2.5741,-2.5744,-2.5743,-2.5746,-2.574,-2.574,-2.574,-2.574,-2.574,-2.5815,-2.5812,-2.5807,-2.5802,-2.5798,-2.5794,-2.579,-2.5786,-2.5781,-2.5774,-2.5772,-2.5766,-2.576,-2.575,-2.5746,-2.5741,-2.5741,-2.5739,-2.5739,-2.5739,-2.5739,-2.5745,-2.574,-2.574,-2.574,-2.574,-2.574,0,-2.5809,-2.5806,-2.5801,-2.5795,-2.5792,-2.5791,-2.5786,-2.5782,-2.5777,-2.5772,-2.5767,-2.5761,-2.5755,-2.5749,-2.5743,-2.574,-2.5739,-2.5739,-2.5739,-2.5738,-2.574,-2.5741,-2.574,-2.574,-2.574,-2.574,-2.574,-2.574,-2.5805,-2.5799,-2.5798,-2.579,-2.5787,-2.5782,-2.5779,-2.5776,-2.5772,-2.5765,-2.5761,-2.5757,-2.5752,-2.5746,-2.5741,-2.574,-2.5738,-2.5738,-2.5736,-2.5738,-2.5738,-2.5738,-2.5739,-2.5737,-2.5737,-2.5735,-2.5735,-2.5735]},{"header":{"parameterUnit":"m.s-1","parameterCategory":1,"la1":30.2991,"la2":30.254,"lo1":-89.0895,"lo2":-89.0444,"dy":0.0017,"dx":0.0017,"nx":28,"ny":28,"refTime":"2024-06-21T09:00:00:Z","depth":0,"parameterNumber":3,"parameterNumberName":"V-component_of_WINDS"},"data":[0,0,0,0,0,0,0,0,0,0,0,0,0,0,0,0,0,0,0,0,0,0,0,0,0,0,0,0,0,0,0,0,0,0,0,0,0,0,0,0,0,0,0,0,0,0,0,0,0,0,0,0,0,0,0,0,0,0,-1.3482,-1.3482,0,-1.3492,-1.3492,-1.3492,-1.3435,-1.3433,-1.3432,-1.343,-1.344,-1.3441,-1.3443,0,0,0,0,0,0,0,0,0,0,0,0,0,-1.3415,-1.3416,-1.3482,-1.3482,-1.3483,-1.3492,-1.3492,-1.3492,-1.3435,-1.3433,-1.3431,-1.3429,-1.3439,-1.3441,-1.3443,0,0,0,0,0,0,0,0,0,0,0,0,0,-1.3436,-1.3417,-1.3482,-1.3455,-1.3453,-1.3492,-1.3492,-1.3492,-1.3436,-1.3433,-1.3431,-1.3428,-1.3438,-1.3441,-1.3444,-1.3509,0,0,-1.3452,-1.3453,0,0,0,0,0,0,0,0,-1.3435,-1.3439,-1.3459,-1.3457,-1.3455,-1.346,-1.3471,-1.3498,-1.3436,-1.3442,-1.343,-1.3427,-1.3448,-1.345,-1.3457,-1.3509,-1.351,-1.3452,-1.3453,-1.3455,-1.3455,0,0,0,0,0,0,0,-1.3434,-1.3438,-1.3486,-1.346,-1.3457,-1.3443,-1.3443,-1.3476,-1.3459,-1.3441,-1.3437,-1.3439,-1.3447,-1.3455,-1.3457,-1.351,-1.3452,-1.3454,-1.3456,-1.3457,-1.3616,-1.3619,0,0,0,0,0,0,-1.3436,-1.3437,-1.3486,-1.3486,-1.3439,-1.3446,-1.3446,-1.3461,-1.3458,-1.3456,-1.3441,-1.3437,-1.3451,-1.3454,-1.3457,-1.3534,-1.3455,-1.3457,-1.3459,-1.3614,-1.3617,-1.362,0,0,0,0,0,0,-1.3434,-1.3441,-1.3485,-1.3461,-1.3465,-1.345,-1.3466,-1.3462,-1.347,-1.3458,-1.3455,-1.3453,-1.3449,-1.3453,-1.3496,-1.3533,-1.3458,-1.3461,-1.361,-1.3614,-1.3618,-1.3687,0,0,0,0,0,0,-1.3433,-1.344,-1.3465,-1.3462,-1.3467,-1.3525,-1.3468,-1.3464,-1.3475,-1.3469,-1.3468,-1.3466,-1.3448,-1.3493,-1.3499,-1.3535,-1.3463,-1.3607,-1.3612,-1.3617,-1.3682,-1.3693,-1.3703,0,0,0,0,0,-1.3431,-1.3484,-1.3467,-1.3473,-1.3497,-1.3527,-1.353,-1.3509,-1.3478,-1.3503,-1.3495,-1.3466,-1.3528,-1.3498,-1.3504,-1.3542,-1.3605,-1.3611,-1.3617,-1.3677,-1.3691,-1.3703,0,0,0,0,0,0,-1.3492,-1.3483,-1.3464,-1.3518,-1.3524,-1.3517,-1.3548,-1.3524,-1.3539,-1.3532,-1.3505,-1.3505,-1.3553,-1.3552,-1.3518,-1.3605,-1.3561,-1.3568,-1.3605,-1.3618,-1.3628,-1.3628,-1.3465,0,0,0,0,0,-1.3512,-1.3537,-1.3528,-1.3576,-1.358,-1.3564,-1.3576,-1.3559,-1.3564,-1.3566,-1.3562,-1.3568,-1.3588,-1.3603,-1.3621,-1.3681,-1.368,-1.371,-1.3721,-1.373,-1.3737,-1.3769,-1.3782,-1.3639,-1.3639,-1.3639,0,0,-1.3553,-1.3551,-1.3569,-1.3589,-1.3591,-1.3618,-1.3566,-1.3597,-1.3616,-1.3571,-1.3611,-1.3608,-1.3613,-1.3665,-1.3688,-1.3665,-1.3776,-1.3737,-1.3744,-1.3747,-1.3776,-1.379,-1.3802,-1.3643,-1.3642,-1.3642,0,0,-1.3642,-1.3643,-1.3684,-1.3688,-1.3693,-1.3681,-1.3691,-1.3689,-1.3685,-1.3726,-1.3692,-1.3715,-1.3751,-1.3756,-1.3764,-1.3855,-1.3829,-1.3862,-1.3918,-1.3949,-1.3961,-1.397,-1.4004,-1.4016,-1.3869,-1.3869,-1.3869,0,-1.3693,-1.3732,-1.3708,-1.3741,-1.3751,-1.3711,-1.3752,-1.3757,-1.3768,-1.3776,-1.375,-1.3795,-1.3796,-1.3849,-1.3871,-1.3878,-1.3889,-1.3862,-1.3961,-1.3971,-1.3979,-1.4011,-1.4023,-1.3873,-1.3873,-1.3872,-1.3872,0,-1.3795,-1.3823,-1.3855,-1.3867,-1.388,-1.3917,-1.3898,-1.3915,-1.3897,-1.3888,-1.393,-1.3929,-1.3947,-1.3958,-1.394,-1.4009,-1.3995,-1.3966,-1.3921,-1.3998,-1.4027,-1.4038,-1.3879,-1.3877,-1.3876,-1.3875,0,0,-1.3923,-1.3921,-1.3934,-1.3939,-1.3941,-1.3962,-1.3997,-1.4015,-1.403,-1.4039,-1.4068,-1.41,-1.4073,-1.4081,-1.4064,-1.4091,-1.4165,-1.4059,-1.4058,-1.4079,-1.4241,-1.4263,-1.4277,-1.4147,-1.4149,-1.4151,-1.424,0,-1.4011,-1.4071,-1.4051,-1.4112,-1.4138,-1.41,-1.4131,-1.4136,-1.4129,-1.415,-1.4141,-1.4165,-1.4127,-1.4132,-1.4158,-1.415,-1.4197,-1.4144,-1.4174,-1.4176,-1.4175,-1.4293,-1.4316,-1.4401,-1.4252,-1.4253,-1.4255,0,-1.4121,-1.4135,-1.4199,-1.4198,-1.4208,-1.4236,-1.4251,-1.4271,-1.4276,-1.4268,-1.4278,-1.4255,-1.4289,-1.4244,-1.4291,-1.4256,-1.4267,-1.4265,-1.4268,-1.4271,-1.4221,-1.4299,-1.4427,-1.4441,-1.4272,-1.4271,-1.427,0,-1.421,-1.4244,-1.4287,-1.4292,-1.4292,-1.4312,-1.4313,-1.4315,-1.4328,-1.434,-1.4348,-1.4365,-1.4374,-1.4388,-1.4369,-1.4338,-1.442,-1.4373,-1.4415,-1.4416,-1.4435,-1.4434,-1.4567,-1.4441,-1.4441,-1.444,-1.444,0,-1.4311,-1.4352,-1.4327,-1.4354,-1.4398,-1.4374,-1.4419,-1.4416,-1.4418,-1.4443,-1.4411,-1.4436,-1.441,-1.4432,-1.4418,-1.446,-1.4464,-1.4459,-1.4455,-1.4463,-1.4464,-1.447,-1.4464,-1.4444,-1.4443,-1.4442,-1.4442,0,-1.4417,-1.4402,-1.4447,-1.4443,-1.4442,-1.4476,-1.4472,-1.4497,-1.4487,-1.452,-1.4526,-1.4511,-1.4535,-1.4518,-1.4542,-1.4533,-1.4588,-1.4575,-1.4587,-1.4584,-1.4628,-1.4624,-1.4771,-1.4789,-1.465,-1.4651,-1.4652,0,-1.4483,-1.4513,-1.4513,-1.4528,-1.453,-1.4555,-1.4567,-1.4544,-1.4559,-1.4567,-1.459,-1.4612,-1.4628,-1.4668,-1.466,-1.4678,-1.4666,-1.4716,-1.4669,-1.4675,-1.4668,-1.4667,-1.467,-1.4726,-1.4728,-1.4729,-1.473,0,-1.4601,-1.4592,-1.4611,-1.4629,-1.4645,-1.4657,-1.4666,-1.468,-1.4657,-1.4675,-1.47,-1.4712,-1.4737,-1.4759,-1.4774,-1.4774,-1.4749,-1.4745,-1.4756,-1.4765,-1.477,-1.4769,-1.4614,-1.4742,-1.4741,-1.474,-1.4739,-1.4739,-1.4689,-1.4715,-1.4719,-1.4742,-1.4747,-1.4757,-1.478,-1.4774,-1.4794,-1.4813,-1.4798,-1.4827,-1.4831,-1.4849,-1.4853,-1.4876,-1.4855,-1.4871,-1.4875,-1.488,-1.4886,-1.4766,-1.4878,-1.4878,-1.4877,-1.4877,-1.4877,0,-1.4807,-1.4808,-1.4829,-1.4844,-1.4862,-1.4836,-1.4845,-1.4862,-1.4889,-1.4895,-1.4912,-1.494,-1.4961,-1.4955,-1.4974,-1.4993,-1.4982,-1.4999,-1.4998,-1.4999,-1.4903,-1.4892,-1.5008,-1.5008,-1.5008,-1.5008,-1.5008,-1.5008,-1.487,-1.4913,-1.4905,-1.495,-1.495,-1.4979,-1.4987,-1.4996,-1.5001,-1.5034,-1.5052,-1.5047,-1.5049,-1.5067,-1.5086,-1.5083,-1.5092,-1.5114,-1.5107,-1.5018,-1.5005,-1.4993,-1.4983,-1.5116,-1.5116,-1.5201,-1.5202,-1.5202]}]]